Regional Weather Roundup
Issued by NWS

Home | Current Version | Previous Version | Text Only | Print | Product List | Glossary Off
Versions: 1 2 3 4 5 6 7 8 9 10 11 12 13 14 15 16 17 18 19 20 21 22 23 24 25 26 27 28 29 30 31 32 33 34 35 36 37 38 39 40 41 42 43 44 45 46 47 48 49 50

000
ASUS43 KBIS 230120
RWRND

NORTH DAKOTA REGIONAL WEATHER ROUNDUP
NATIONAL WEATHER SERVICE BISMARCK ND
800 PM CDT TUE JUL 22 2014

NOTE: "FAIR" INDICATES FEW OR NO CLOUDS BELOW 12,000 FEET WITH NO
SIGNIFICANT WEATHER AND/OR OBSTRUCTIONS TO VISIBILITY.


NDZ001>003-009>011-017-230200-
NORTHWEST NORTH DAKOTA

CITY           SKY/WX    TMP DP  RH WIND       PRES   REMARKS
WILLISTON      PTSUNNY   82  54  37 E12       30.17S
MINOT          MOSUNNY   75  62  64 NE5       30.20S
MINOT AFB      SUNNY     76  62  61 E8        30.20S
$$

NDZ018>021-031>035-040>046-230200-
SOUTHWEST NORTH DAKOTA

CITY           SKY/WX    TMP DP  RH WIND       PRES   REMARKS
BISMARCK       MOSUNNY   77  62  59 E7        30.22R
DICKINSON      LGT RAIN  71  63  75 S8        30.25R
GARRISON         N/A     75  63  66 E5        30.21R
HETTINGER ARPT LGT RAIN  69  60  73 E13       30.24R
$$

NDZ004>008-012>016-024-026-027-054-230200-
NORTHEAST NORTH DAKOTA

CITY           SKY/WX    TMP DP  RH WIND       PRES   REMARKS
GRAND FORKS    MOSUNNY   73  60  63 N5        30.19R
GRND FRKS AFB  SUNNY     74  59  60 N7        30.21R
DEVILS LAKE    SUNNY     73  59  60 E3        30.20S
$$

NDZ022-023-025-028>030-036>039-047>053-230200-
SOUTHEAST NORTH DAKOTA

CITY           SKY/WX    TMP DP  RH WIND       PRES   REMARKS
FARGO          SUNNY     75  57  53 N10       30.19R
JAMESTOWN      MOSUNNY   75  59  57 NE7       30.21R
$$




USA.gov is the U.S. government's official web portal to all federal, state and local government web resources and services.